[Iaude] MPEC G01: 2024 FR3 [a=1.40,e=0.39,i=1.3,H=25.7]
    mpec at cfa.harvard.edu 
    mpec at cfa.harvard.edu
       
    Sun Mar 31 20:02:31 EDT 2024
    
    
  
M.P.E.C. 2024-G01                                 Issued 2024 April 1, 00:00 UT
     The Minor Planet Electronic Circulars contain information on unusual
         minor planets, routine data on comets and natural satellites,
         and occasional editorial announcements.  They are published
    on behalf of Division F of the International Astronomical Union by the
          Minor Planet Center, Smithsonian Astrophysical Observatory,
                          Cambridge, MA 02138, U.S.A.
			  
             Prepared using the Tamkin Foundation Computer Network
                              MPC at CFA.HARVARD.EDU
            URL https://www.minorplanetcenter.net/    ISSN 1523-6714
                                    2024 FR3                                    
Observations:
     K24F03R* C2024 03 30.26675313 18 21.713-01 25 24.64         17.87oVEG001W68
     K24F03R  C2024 03 30.29178413 18 50.258-01 24 37.01         18.57oVEG001W68
     K24F03R  C2024 03 30.29746613 18 56.688-01 24 25.99         18.50oVEG001W68
     K24F03R  C2024 03 30.30111413 19 00.922-01 24 17.78         18.33oVEG001W68
     K24F03R KB2024 03 30.65211 13 27 25.73 -01 19 28.8          18.3 GVEG001P13
     K24F03R KB2024 03 30.65289 13 27 33.24 -01 18 26.0          19.5 GVEG001O46
     K24F03R KB2024 03 30.66119 13 27 38.47 -01 19 09.2          18.3 GVEG001P13
     K24F03R KB2024 03 30.66170 13 27 45.67 -01 18 06.3          18.9 GVEG001O46
     K24F03R KB2024 03 30.67227 13 27 54.04 -01 18 44.9          18.4 GVEG001P13
     K24F03R KC2024 03 30.92993413 35 01.670-01 09 29.56         18.1 GVEG001J95
     K24F03R KC2024 03 30.93129313 35 03.898-01 09 26.46         18.1 GVEG001J95
     K24F03R KC2024 03 30.93537613 35 10.776-01 09 15.30         17.9 GVEG001J95
     K24F03R KC2024 03 30.93707313 35 13.608-01 09 11.70         17.7 GVEG001J95
     K24F03R KC2024 03 30.97258713 36 13.075-01 07 41.05         18.0 GVEG001Z80
     K24F03R KC2024 03 30.97294 13 36 04.25 -01 07 34.8          18.4 R EG001585
     K24F03R KC2024 03 30.97378 13 36 05.66 -01 07 33.0                 EG001585
     K24F03R KC2024 03 30.97465 13 36 07.14 -01 07 30.6          18.2 R EG001585
     K24F03R KC2024 03 30.97553 13 36 08.57 -01 07 27.8                 EG001585
     K24F03R KC2024 03 30.97641 13 36 10.14 -01 07 25.8          17.5 R EG001585
     K24F03R KC2024 03 30.98457813 36 33.449-01 07 10.45         18.2 GVEG001Z80
     K24F03R KC2024 03 31.07162513 39 04.846-01 03 16.52         17.6 GVEG001J95
     K24F03R KC2024 03 31.07227113 39 06.010-01 03 15.08         17.6 GVEG001J95
     K24F03R KC2024 03 31.07291713 39 07.154-01 03 13.10         17.5 GVEG001J95
     K24F03R KC2024 03 31.07356213 39 08.302-01 03 11.23         17.6 GVEG001J95
     K24F03R KB2024 03 31.12881 13 41 17.78 -00 58 14.9          17.5 GXEG001W42
     K24F03R KB2024 03 31.13333 13 41 26.15 -00 58 01.6          17.6 GXEG001W42
     K24F03R KB2024 03 31.13798 13 41 34.76 -00 57 48.7          17.7 GXEG001W42
     K24F03R  C2024 03 31.26917 13 45 53.67 -00 52 09.3          16.7 VtEG001V27
     K24F03R  C2024 03 31.27389 13 46 02.94 -00 51 56.4          17.9 VtEG001V27
     K24F03R  C2024 03 31.28056 13 46 16.11 -00 51 34.5          17.7 VtEG001V27
     K24F03R  C2024 03 31.43642013 52 02.758-00 41 08.81         17.36oVEG001T05
     K24F03R  C2024 03 31.43822713 52 06.605-00 41 02.08         17.40oVEG001T05
     K24F03R  C2024 03 31.44319913 52 17.347-00 40 44.80         17.57oVEG001T05
     K24F03R  C2024 03 31.44907313 52 30.055-00 40 24.28         17.48oVEG001T05
     K24F03R KB2024 03 31.96072714 16 12.95 -00 08 10.8          17.4 GXEG001958
     K24F03R KB2024 03 31.96248714 16 18.42 -00 08 02.1          17.5 GXEG001958
     K24F03R KB2024 03 31.96424614 16 23.92 -00 07 54.3          17.7 GXEG001958
     K24F03R KB2024 03 31.96600514 16 29.37 -00 07 45.4          17.6 GXEG001958
     K24F03R KB2024 03 31.96776514 16 34.87 -00 07 37.5          17.5 GXEG001958
Observer details:
585 Kyiv comet station.  Observers A. Baransky, A. Kasianchuk.  0.7-m f/4
    reflector + CCD.
958 Observatoire de Dax.  Observer P. Dupouy.  0.50-m f/4.5 Reflector + CMO.
J95 Great Shefford.  Observer P. Birtwhistle.  0.41-m f/6.3 Schmidt-Cassegrain
    + CCD.
O46 Daocheng Glacier Observatory.  Observer Z. Wang.  0.25-m f/8 reflector +
    CMO.
P13 Baihuashan Observatory, Beijing.  Observers Z. Wang, B. Liu.  Measurer Z.
    Wang.  0.28-m f/2.2 reflector + CMO.
T05 ATLAS-HKO, Haleakala.  Observers L. Denneau, R. Siverd, J. Tonry, H.
    Weiland.  Measurers L. Denneau, N. Erasmus, A. Fitzsimmons, J. Robinson,
    R. Siverd, J. Tonry, H. Weiland.  0.5-m Reflector + CCD.
V27 North Mesa Observatory, Los Alamos.  Observer B. K. Kendrick.  0.25-m f/6
    reflector + CCD.
W42 Mind's Eye Observatory, Vero Beach.  Observer J. T. Grage.  0.30-m f/3.3
    SCT + CMO.
W68 ATLAS Chile, Rio Hurtado.  Observers L. Denneau, R. Siverd, J. Tonry, H.
    Weiland.  Measurers L. Denneau, N. Erasmus, A. Fitzsimmons, J. Robinson,
    R. Siverd, J. Tonry, H. Weiland.  0.5-m Reflector + CCD.
Z80 Northolt Branch Observatory.  Observer G. Wells.  0.25-m f/8.0 Ritchey-
    Chretien + CCD.
Orbital elements:
2024 FR3                                                 Earth MOID = 0.0043 AU
Epoch 2024 Mar. 31.0 TT = JDT 2460400.5                 Veres                   
M 330.12296              (2000.0)            P               Q                  
n   0.59423910     Peri.   73.09007     -0.23402021     +0.97223077             
a   1.4011842      Node   183.37695     -0.90061230     -0.21731105             
e   0.3943119      Incl.    1.33101     -0.36624039     -0.08685183             
P   1.66           H   25.70          G   0.15           U   7                  
Residuals in seconds of arc
240330 W68  0.0   0.0     240330 Z80  0.2-  0.3+    240331 W42  0.3-  0.1-
240330 W68  0.9+  0.5-    240330 585  0.4-  0.3+    240331 V27  0.5+  0.8+
240330 W68  0.8-  0.5-    240330 585  0.4-  0.1-    240331 V27  0.6-  1.0-
240330 W68  0.5-  0.6+    240330 585  0.1-  0.0     240331 V27  1.4-  0.2+
240330 P13  0.1+  0.2+    240330 585  0.8-  0.5+    240331 T05  0.5+  0.3-
240330 O46  0.3+  0.1-    240330 585  0.6+  0.2+    240331 T05  0.2-  0.2+
240330 P13  0.2+  0.0     240330 Z80  0.2+  0.2-    240331 T05  0.0   0.1+
240330 O46  0.9+  0.4+    240331 J95  0.2-  0.1+    240331 T05  0.0   0.0
240330 P13  0.1-  0.0     240331 J95  0.0   0.3-    240331 958  0.1-  0.2+
240330 J95  0.1+  0.0     240331 J95  0.0   0.1-    240331 958  0.2-  0.4+
240330 J95  0.6-  0.3-    240331 J95  0.0   0.0     240331 958  0.1+  0.3-
240330 J95  0.1+  0.6+    240331 W42  0.0   0.1-    240331 958  0.3-  0.1+
240330 J95  0.0   0.1-    240331 W42  0.1-  0.3+    240331 958  0.2-  0.5-
Ephemeris:
2024 FR3                 a,e,i = 1.40, 0.39, 1                   q = 0.8487
Date    TT    R. A. (2000) Decl.     Delta      r    Elong.  Phase     V
2024 03 02    12 01 51.7 -02 44 32   0.2144  1.1947   159.9    16.6    23.6
...
2024 03 17    12 12 44.2 -02 57 28   0.1076  1.1017   172.3     6.9    21.6
...
2024 03 25    12 29 50.9 -02 37 08   0.05634 1.0535   176.6     3.2    19.9
...
2024 03 31    13 36 53.3 -01 00 49   0.02034 1.0186   165.1    14.7    18.1
2024 04 01    14 18 01.2 +00 01 41   0.01503 1.0129   155.6    24.1    17.7
2024 04 02    15 37 19.5 +02 00 24   0.01069 1.0073   136.6    43.0    17.5
...
2024 04 08    22 51 30.5 +04 35 39   0.03221 0.9747    33.9   145.0    25.8
...
2024 04 16    23 32 23.1 +03 59 52   0.08139 0.9351    31.5   145.9    27.8
...
2024 05 01    23 55 44.0 +04 22 23   0.1808  0.8773    40.2   132.1    27.6
                      (Last issue was M.P.E.C. 2024-F121)                       
M. P. C. Staff               (C) Copyright 2024 MPC           M.P.E.C. 2024-G01
    
    
More information about the Iaude
mailing list